Location: Unspecified
(0.0000°N, 0.0000°E)
Time: 18:23:03
(UTC+00:00)

Hubble Space Telescope - Pass Details

Date: 09 May 2021
Orbit: 535 x 539 km, 28.5° (Epoch: 14 May)

Event Time Altitude Azimuth Distance (km) Brightness Sun altitude
Exits shadow 05:23:39 - 218° (SW) 2,174 3.4 -7.8°
Reaches altitude 10° 05:24:46 10° 212° (SSW) 1,777 3.0 -7.6°
Maximum altitude 05:28:22 29° 151° (SSE) 991 2.3 -6.7°
Drops below altitude 10° 05:31:58 10° 89° (E) 1,773 4.9 -5.8°
Sets 05:34:25 0° 78° (ENE) 2,661 7.0 -5.3°
